Regional Weather Roundup
Issued by NWS Upton, NY

Current Version | Previous Version | Text Only | Print | Product List | Glossary Off
Versions: 1 2 3 4 5 6 7 8 9 10 11 12 13 14 15 16 17 18 19 20 21 22 23 24 25 26 27 28 29 30 31 32 33 34 35 36 37 38 39 40 41 42 43 44 45 46 47 48 49 50

000
ASUS41 KOKX 231809
RWROKX

Regional Weather Roundup
National Weather Service New York NY
100 PM EST TUE JAN 23 2018

Note: "FAIR" indicates few or no clouds below 12,000 feet with no
significant weather and/or obstructions to visibility.

NYZ071-072-176-178-NJZ106-104-231900-
New York City Metro Area

CITY           SKY/WX    TMP DP  RH WIND       PRES   REMARKS
Central Park   CLOUDY    56  53  90 W3        29.56F
Bronx Bot Gard   N/A     54  54 100 W9        29.55F
Bronx Lehman C   N/A     54  52  94 SW6         N/A
LaGuardia Arpt LGT RAIN  54  52  93 SW12      29.55R FOG
Queens College   N/A     52  52 100 S12         N/A
Kennedy Intl   FOG       51  51 100 S22G32    29.54F VSB 1/2
Breezy Point     N/A     45 N/A N/A S16G22      N/A
Brooklyn Coll    N/A     50  50 100 S8          N/A
Staten Island    N/A     59  52  77 NW13        N/A
Newark/Liberty PTSUNNY   58  50  75 NW12      29.53S
Teterboro      CLOUDY    57  51  80 NW8G17    29.52S
$$

NYZ177-179-078>081-231900-
Long Island New York

CITY           SKY/WX    TMP DP  RH WIND       PRES   REMARKS
Jones Beach      N/A     46 N/A N/A S15G21      N/A
Wantagh          N/A     48  48 100 S13         N/A
Matinecock Pt    N/A     55 N/A N/A S14G23      N/A
Farmingdale    LGT RAIN  52  51  97 SW15G26   29.56F
MacArthur/ISP  LGT RAIN  55  53  93 S15G26    29.56F FOG
Shirley        RAIN      55  55 100 S22G31    29.58F FOG
Mt Sinai Harb    N/A    N/A N/A N/A S13G20      N/A
Westhampton    HVY RAIN  55  53  93 S13G25    29.61F FOG
East Hampton   RAIN      52  52  98 S15G24    29.60F
Southold         N/A     54  52  94 S23G37      N/A
Montauk          N/A     52  50  93 S15G23    29.63F
$$

NYZ052-065-067-231900-
Hudson Valley

CITY           SKY/WX    TMP DP  RH WIND       PRES   REMARKS
White Plains   RAIN      53  53 100 SW9       29.54R VSB 1/2
Larchmont Harb   N/A     48 N/A N/A S17         N/A
Croton On Huds   N/A     52 N/A N/A NW5         N/A
Somers           N/A     54  52  94 W8          N/A
Brewster         N/A     54  52  94 S8          N/A
Newburgh       PTSUNNY   46  46 100 W6        29.56S FOG
Montgomery     FAIR      46  45  96 S5        29.53F
Otisville        N/A     48  48 100 W5          N/A
Warwick          N/A     52  50  93 W6          N/A
Suffern          N/A     52  50  93 W5          N/A
Poughkeepsie   CLOUDY    47  46  97 CALM      29.54S FOG
Albany         LGT RAIN  46  43  89 E5        29.55F
$$

NJZ001-105-106-008-010-013-015-019>022-104-231900-
New Jersey

CITY           SKY/WX    TMP DP  RH WIND       PRES   REMARKS
Newark/Liberty PTSUNNY   58  50  75 NW12      29.53S
Teterboro      CLOUDY    57  51  80 NW8G17    29.52S
Caldwell       PTSUNNY   58  50  75 VRB3      29.53F
Somerville     FAIR      58  50  75 CALM      29.52F
Linden         MOCLDY    57  53  85 NW5       29.54R
Perth Amboy      N/A     55 N/A N/A W7          N/A
Sussex         FAIR      53  49  86 SE3       29.52F
Andover          N/A     53  49  86 CALM      29.53F
Trenton        FAIR      58  51  78 VRB6      29.56F
Millville      PTSUNNY   60  60 100 SW9       29.56F
Atlantic City  CLOUDY    58  58 100 SW13      29.57F
Wrightstown    HVY RAIN  55  52  88 W7        29.56R FOG
Toms River     CLOUDY    59  57  93 SW14G21   29.54F
Belmar         LGT RAIN  59  57  93 SW12      29.56F
$$

PAZ047>061-062-071-231900-
Eastern Pennsylvania

CITY           SKY/WX    TMP DP  RH WIND       PRES   REMARKS
Philadelphia   PTSUNNY   59  51  75 W9        29.57F
Allentown      FAIR      56  49  77 SW9       29.56S
Scranton       CLOUDY    50  49  96 W6        29.55S FOG
$$

CTZ002-004>006-009-010-012-RIZ004-006-007-MAZ004-011-015-231900-
Southern New England

 In CT

CITY           SKY/WX    TMP DP  RH WIND       PRES   REMARKS
Bradley Intl   LGT RAIN  37  37 100 N5        29.56F FOG     WCI  33
Hartford       LGT RAIN  38  38 100 NW5       29.55F FOG     WCI  34
Danbury        CLOUDY    55  53  93 S10G21    29.53F
Wtrbury/Oxford LGT RAIN  54  54 100 S15G28    29.53F FOG
Norwalk Harbor   N/A     48 N/A N/A S24G30      N/A
Bridgeport     LGT RAIN  52  50  93 S18       29.54F
Meriden        LGT RAIN  54  54 100 S14G22    29.54F
New Haven      CLOUDY    50  49  96 S14       29.55F FOG
Chester        LGT RAIN  55  55 100 S14G30    29.57F
Groton         RAIN      47  46  97 S18       29.59F VSB 3/4
Willimantic    RAIN      58  55  90 S15G26    29.57F FOG

 In RI

CITY           SKY/WX    TMP DP  RH WIND       PRES   REMARKS
Providence     RAIN      54  54 100 S16G28    29.63F FOG
Block Island   RAIN      51  50  96 S17       29.64F FOG
Westerly       RAIN      49  49 100 S15       29.64F VSB 1

In MA

CITY           SKY/WX    TMP DP  RH WIND       PRES   REMARKS
Boston         LGT RAIN  36  36 100 NE3       29.64F VSB 1
Worcester      FRZ RAIN  33  31  92 NE6       29.58F VSB<1/4 WCI  28
Westfield      LGT RAIN  35  35 100 N8        29.56F WCI  29
Provincetown   RAIN      48  48 100 MISG      29.70F FOG
Nantucket      FOG       48  48 100 S21       29.72F VSB 1/2
$$

ANZ330-335-338-340-345-350-353-355-231900-
Coastal Marine Observations


STATION/POSITION TIME  SKY/WX   TEMP    WIND        PRES    VSBY  WAVE
                                AIR SEA DIR/SP/G                  HT/PER
                 (UTC)          (F)     (DEG/KT/KT) (MB)    (MI)  (FT/S)
NY Harb Entrance 1750            47 40  190/ 19/ 23 1000.0          5/ 6
20 S Fire Island 1750            53 42  200/ 25/ 29 1001.0          8/ 7
15 E Barnegat Li 1730               43                N/A           7/ 6
Hudson Canyon    1750            57 49  170/ 27/ 31 1002.0          5/ 6
Kings Point      1742            50 35  220/ 19/ 21 1000.8
Execution Rocks  NOT AVBL
Western LI Sound NOT AVBL
Central LI Sound 1730            50     180/ 21/ 31   N/A           4
Robbins Reef     1742            53     310/ 11/ 22 1000.4
$$


>>>>>>>>>>>>>>>>>>>>>>>>>>>> KEY <<<<<<<<<<<<<<<<<<<<<<<<<<<
>                                                          <
>     SKY/WX - Sky Condition/Present Weather               <
>     TMP    - Temperature in Fahrenheit                   <
>     DP     - Dew Point in Fahrenheit                     <
>     RH     - Relative Humidity in Percent                <
>     WIND   - Direction (from) and Speed in MPH           <
>     PRES   - Mean Sea Level Pressure (inches of Hg)      <
>     WCI    - Wind Chill Index                            <
>     VSB    - Visibility in Miles                         <
>     HX     - Heat Index                                  <
>     TC     - Temperature in Celsius                      <
>     VRB    - Varibale Wind Direction                     <
>                                                          <
>>>>>>>>>>>>>>>>>>>>>>>>>>>> KEY <<<<<<<<<<<<<<<<<<<<<<<<<<<



USA.gov is the U.S. government's official web portal to all federal, state and local government web resources and services.